[[{"header":{"parameterUnit":"m.s-1","parameterCategory":1,"la1":30.2991,"la2":30.254,"lo1":-89.0895,"lo2":-89.0444,"dy":0.0017,"dx":0.0017,"nx":28,"ny":28,"refTime":"2024-06-02T09:00:00:Z","depth":0,"parameterNumber":2,"parameterNumberName":"U-component_of_WINDS"},"data":[0,0,0,0,0,0,0,0,0,0,0,0,0,0,0,0,0,0,0,0,0,0,0,0,0,0,0,0,0,0,0,0,0,0,0,0,0,0,0,0,0,0,0,0,0,0,0,0,0,0,0,0,0,0,0,0,0,0,-0.2001,-0.2002,0,-0.2081,-0.2082,-0.2083,-0.2171,-0.2172,-0.2173,-0.2175,-0.2252,-0.2253,-0.2254,0,0,0,0,0,0,0,0,0,0,0,0,0,-0.192,-0.1921,-0.2001,-0.2002,-0.2003,-0.2081,-0.2082,-0.2084,-0.2171,-0.2172,-0.2174,-0.2175,-0.2252,-0.2253,-0.2254,0,0,0,0,0,0,0,0,0,0,0,0,0,-0.1973,-0.1921,-0.2001,-0.2056,-0.2062,-0.2081,-0.2082,-0.2084,-0.217,-0.2172,-0.2174,-0.2176,-0.2252,-0.2253,-0.2254,-0.2224,0,0,-0.2259,-0.2259,0,0,0,0,0,0,0,0,-0.197,-0.1976,-0.2047,-0.2053,-0.2059,-0.2118,-0.2082,-0.2131,-0.217,-0.2129,-0.2175,-0.2177,-0.2206,-0.2211,-0.2222,-0.2228,-0.2231,-0.2259,-0.2259,-0.226,-0.226,0,0,0,0,0,0,0,-0.1966,-0.1973,-0.2033,-0.2048,-0.2055,-0.2076,-0.2085,-0.2092,-0.2156,-0.2133,-0.2139,-0.2148,-0.221,-0.222,-0.2224,-0.2233,-0.2259,-0.226,-0.2261,-0.2261,-0.2217,-0.2215,0,0,0,0,0,0,-0.1955,-0.1969,-0.203,-0.2035,-0.2018,-0.2076,-0.2086,-0.2097,-0.2156,-0.2167,-0.2146,-0.2152,-0.2217,-0.2223,-0.2227,-0.2196,-0.226,-0.2261,-0.2262,-0.2219,-0.2217,-0.2215,0,0,0,0,0,0,-0.1952,-0.1959,-0.2027,-0.2004,-0.2014,-0.2075,-0.2086,-0.2098,-0.2109,-0.2166,-0.2177,-0.2146,-0.2219,-0.2226,-0.2225,-0.22,-0.2262,-0.2263,-0.2222,-0.2219,-0.2216,-0.2132,0,0,0,0,0,0,-0.195,-0.1958,-0.1948,-0.2003,-0.2015,-0.2024,-0.2085,-0.2098,-0.2111,-0.2119,-0.2169,-0.2179,-0.2221,-0.2222,-0.2226,-0.2203,-0.2264,-0.2224,-0.222,-0.2217,-0.2137,-0.2126,-0.2117,0,0,0,0,0,-0.1947,-0.1921,-0.1947,-0.1954,-0.2004,-0.2022,-0.2029,-0.2079,-0.2109,-0.2099,-0.2136,-0.2177,-0.2202,-0.2221,-0.2226,-0.2203,-0.2226,-0.2221,-0.2217,-0.2142,-0.2129,-0.2118,0,0,0,0,0,0,-0.186,-0.1929,-0.1959,-0.1951,-0.198,-0.2037,-0.2026,-0.2064,-0.2085,-0.2091,-0.2152,-0.2162,-0.2154,-0.2178,-0.2199,-0.2177,-0.222,-0.2216,-0.2161,-0.2149,-0.2139,-0.2133,-0.2265,0,0,0,0,0,-0.184,-0.185,-0.1909,-0.1896,-0.1909,-0.1965,-0.1975,-0.2011,-0.2043,-0.2056,-0.2093,-0.2121,-0.2136,-0.2144,-0.216,-0.2141,-0.2153,-0.2128,-0.2118,-0.2109,-0.2105,-0.2096,-0.2085,-0.22,-0.22,-0.22,0,0,-0.1798,-0.1837,-0.184,-0.1879,-0.1907,-0.1914,-0.1975,-0.198,-0.1986,-0.2056,-0.2058,-0.2086,-0.2122,-0.2111,-0.2109,-0.2132,-0.2076,-0.2104,-0.2096,-0.2097,-0.209,-0.2079,-0.207,-0.2197,-0.2198,-0.2198,0,0,-0.1726,-0.1757,-0.1749,-0.1775,-0.1816,-0.1853,-0.1851,-0.1903,-0.1924,-0.1927,-0.1979,-0.1987,-0.201,-0.2034,-0.2049,-0.1985,-0.2023,-0.1989,-0.1936,-0.1927,-0.1918,-0.191,-0.1886,-0.1877,-0.1984,-0.1984,-0.1984,0,-0.1669,-0.1684,-0.174,-0.1742,-0.1758,-0.1823,-0.1814,-0.1836,-0.188,-0.1888,-0.1914,-0.1945,-0.1973,-0.1969,-0.1954,-0.1964,-0.1962,-0.1983,-0.1915,-0.1907,-0.1901,-0.1879,-0.187,-0.198,-0.198,-0.1981,-0.1981,0,-0.1611,-0.162,-0.1609,-0.165,-0.1664,-0.1661,-0.1715,-0.1722,-0.1757,-0.1791,-0.1792,-0.183,-0.1854,-0.1856,-0.189,-0.1856,-0.1869,-0.1904,-0.1948,-0.1884,-0.1865,-0.1857,-0.1973,-0.1975,-0.1976,-0.1977,0,0,-0.1486,-0.1559,-0.1553,-0.1572,-0.1622,-0.163,-0.1629,-0.1655,-0.1659,-0.1687,-0.1686,-0.1705,-0.1737,-0.1754,-0.1791,-0.1783,-0.1729,-0.1819,-0.182,-0.18,-0.1693,-0.1666,-0.1655,-0.1755,-0.1754,-0.1753,-0.1689,0,-0.1422,-0.1426,-0.1476,-0.1465,-0.1474,-0.1536,-0.1535,-0.1564,-0.1596,-0.1607,-0.1642,-0.1653,-0.1696,-0.1706,-0.1701,-0.1736,-0.1708,-0.1742,-0.1754,-0.1754,-0.1742,-0.1645,-0.1617,-0.1555,-0.1682,-0.1681,-0.168,0,-0.1348,-0.1372,-0.1362,-0.1412,-0.1417,-0.1416,-0.1443,-0.1453,-0.1487,-0.1511,-0.1529,-0.1571,-0.1573,-0.1615,-0.1617,-0.1639,-0.1647,-0.1665,-0.1664,-0.1666,-0.1712,-0.1644,-0.1537,-0.1527,-0.1669,-0.167,-0.167,0,-0.1256,-0.1286,-0.1284,-0.1299,-0.1357,-0.1354,-0.1378,-0.1414,-0.1426,-0.1449,-0.1457,-0.148,-0.1492,-0.1507,-0.1554,-0.1581,-0.155,-0.1597,-0.1568,-0.1567,-0.1558,-0.1558,-0.145,-0.1565,-0.1565,-0.1565,-0.1565,0,-0.1179,-0.117,-0.1244,-0.1242,-0.1234,-0.1291,-0.1281,-0.131,-0.1342,-0.1346,-0.1401,-0.1404,-0.1466,-0.1475,-0.1511,-0.1507,-0.1512,-0.153,-0.1539,-0.1524,-0.1522,-0.153,-0.1535,-0.1563,-0.1563,-0.1564,-0.1564,0,-0.1075,-0.1124,-0.1126,-0.1181,-0.1194,-0.1185,-0.1232,-0.1232,-0.1267,-0.1272,-0.1276,-0.1331,-0.1345,-0.1393,-0.1418,-0.1443,-0.1426,-0.1445,-0.1415,-0.1421,-0.1389,-0.1391,-0.1282,-0.127,-0.1392,-0.1391,-0.139,0,-0.1022,-0.1016,-0.1071,-0.1078,-0.11,-0.1111,-0.1124,-0.118,-0.119,-0.1229,-0.1224,-0.1243,-0.126,-0.1279,-0.132,-0.1339,-0.1359,-0.1319,-0.1362,-0.1347,-0.1357,-0.1356,-0.1355,-0.1309,-0.1308,-0.1306,-0.1305,0,-0.0922,-0.0946,-0.0963,-0.0988,-0.1002,-0.1024,-0.1049,-0.1051,-0.1114,-0.1122,-0.1138,-0.1151,-0.1178,-0.1195,-0.1221,-0.1244,-0.1284,-0.1292,-0.1286,-0.127,-0.1252,-0.1261,-0.1388,-0.1294,-0.1295,-0.1296,-0.1296,-0.1297,-0.0841,-0.0839,-0.0877,-0.0893,-0.0918,-0.0941,-0.0943,-0.0979,-0.0993,-0.102,-0.1052,-0.1063,-0.1097,-0.1136,-0.1156,-0.1165,-0.1187,-0.1179,-0.1177,-0.1174,-0.1166,-0.1252,-0.117,-0.117,-0.1171,-0.1171,-0.1171,0,-0.0743,-0.077,-0.0785,-0.0819,-0.0832,-0.087,-0.09,-0.0907,-0.0917,-0.0946,-0.0962,-0.0979,-0.0996,-0.1039,-0.1059,-0.1058,-0.1077,-0.1061,-0.1061,-0.1066,-0.1146,-0.1148,-0.1046,-0.1046,-0.1046,-0.1046,-0.1046,-0.1046,-0.0693,-0.0692,-0.0721,-0.0731,-0.0759,-0.0771,-0.0785,-0.0805,-0.0829,-0.0845,-0.086,-0.0888,-0.0922,-0.0946,-0.0962,-0.0975,-0.0979,-0.0957,-0.0975,-0.1048,-0.106,-0.1072,-0.1074,-0.0958,-0.0958,-0.0894,-0.0894,-0.0893]},{"header":{"parameterUnit":"m.s-1","parameterCategory":1,"la1":30.2991,"la2":30.254,"lo1":-89.0895,"lo2":-89.0444,"dy":0.0017,"dx":0.0017,"nx":28,"ny":28,"refTime":"2024-06-02T09:00:00:Z","depth":0,"parameterNumber":3,"parameterNumberName":"V-component_of_WINDS"},"data":[0,0,0,0,0,0,0,0,0,0,0,0,0,0,0,0,0,0,0,0,0,0,0,0,0,0,0,0,0,0,0,0,0,0,0,0,0,0,0,0,0,0,0,0,0,0,0,0,0,0,0,0,0,0,0,0,0,0,0.1845,0.1847,0,0.2016,0.2018,0.202,0.2075,0.2075,0.2074,0.2073,0.2242,0.2247,0.2252,0,0,0,0,0,0,0,0,0,0,0,0,0,0.1561,0.1566,0.1845,0.1847,0.1849,0.2015,0.2018,0.202,0.2076,0.2075,0.2074,0.2073,0.2241,0.2247,0.2253,0,0,0,0,0,0,0,0,0,0,0,0,0,0.1703,0.1568,0.1844,0.1897,0.1903,0.2015,0.2018,0.2021,0.2076,0.2075,0.2073,0.2072,0.2239,0.2246,0.2254,0.2324,0,0,0.2278,0.2281,0,0,0,0,0,0,0,0,0.1695,0.1714,0.1887,0.1894,0.1901,0.2023,0.198,0.2122,0.2076,0.201,0.2073,0.2072,0.217,0.2183,0.2218,0.2332,0.2339,0.2278,0.2283,0.2286,0.2288,0,0,0,0,0,0,0,0.1685,0.1707,0.1912,0.189,0.1898,0.191,0.1929,0.2007,0.2094,0.2016,0.202,0.204,0.2173,0.221,0.2222,0.2341,0.2278,0.2285,0.229,0.2293,0.2521,0.2522,0,0,0,0,0,0,0.1667,0.1698,0.1907,0.1917,0.1794,0.1916,0.1937,0.1985,0.2093,0.2109,0.2041,0.2042,0.2197,0.2213,0.2228,0.2317,0.2286,0.2293,0.2298,0.2519,0.2521,0.2523,0,0,0,0,0,0,0.1661,0.1686,0.19,0.1809,0.1837,0.1922,0.1975,0.1989,0.2026,0.2112,0.2127,0.2062,0.2197,0.2217,0.23,0.2324,0.2297,0.2304,0.2518,0.252,0.2522,0.2495,0,0,0,0,0,0,0.1653,0.1683,0.1712,0.1809,0.1842,0.1971,0.1977,0.1993,0.204,0.2043,0.2137,0.2151,0.2198,0.2288,0.2308,0.2334,0.231,0.2516,0.2519,0.2521,0.2495,0.2496,0.2498,0,0,0,0,0,0.1642,0.1696,0.1713,0.1738,0.188,0.1972,0.199,0.2045,0.2041,0.207,0.2126,0.2148,0.2318,0.2296,0.2318,0.2347,0.2515,0.2518,0.2521,0.2494,0.2496,0.2498,0,0,0,0,0,0,0.1597,0.171,0.173,0.1817,0.1885,0.1981,0.2019,0.2045,0.2114,0.2113,0.2176,0.2197,0.2274,0.2319,0.2293,0.2421,0.2417,0.2425,0.2389,0.2392,0.2393,0.2381,0.2317,0,0,0,0,0,0.1598,0.1665,0.1759,0.1827,0.186,0.1934,0.1975,0.2012,0.2083,0.2112,0.2173,0.224,0.2309,0.2353,0.242,0.2501,0.2522,0.2532,0.2534,0.2535,0.2541,0.2586,0.2591,0.2533,0.2533,0.2533,0,0,0.1598,0.1669,0.1707,0.1819,0.1876,0.1942,0.1957,0.2027,0.2076,0.2122,0.2204,0.2251,0.233,0.2412,0.2451,0.2452,0.2561,0.2539,0.2539,0.2544,0.259,0.2595,0.26,0.2535,0.2535,0.2534,0,0,0.1635,0.1695,0.1758,0.1815,0.1901,0.195,0.1965,0.2058,0.2092,0.2176,0.2211,0.227,0.2387,0.2442,0.2485,0.2541,0.2564,0.2561,0.257,0.2614,0.2618,0.2623,0.2642,0.2649,0.2567,0.2567,0.2567,0,0.1624,0.1728,0.1786,0.1855,0.1903,0.1949,0.2013,0.2064,0.2167,0.2199,0.2198,0.2346,0.2402,0.2498,0.2512,0.2545,0.2563,0.2551,0.2613,0.2618,0.2623,0.2643,0.265,0.2566,0.2566,0.2566,0.2566,0,0.1711,0.1782,0.1822,0.1923,0.1976,0.2041,0.2108,0.2154,0.2185,0.2233,0.2317,0.2387,0.2469,0.2494,0.2525,0.2594,0.2592,0.2601,0.2599,0.2627,0.2646,0.2654,0.2565,0.2565,0.2565,0.2565,0,0,0.1723,0.1856,0.187,0.1916,0.2015,0.207,0.2136,0.222,0.2257,0.2326,0.2383,0.2481,0.2491,0.254,0.2576,0.2615,0.2654,0.262,0.2622,0.2624,0.2734,0.2726,0.2734,0.267,0.2672,0.2673,0.2727,0,0.1772,0.1896,0.195,0.2049,0.2115,0.2159,0.2217,0.2283,0.2329,0.239,0.2441,0.2509,0.2517,0.2547,0.2587,0.2641,0.2677,0.2638,0.2722,0.2724,0.2701,0.2744,0.2736,0.2784,0.2735,0.2737,0.2738,0,0.1845,0.1917,0.2022,0.2114,0.2143,0.2195,0.2275,0.2333,0.2408,0.2439,0.2493,0.2529,0.2599,0.2592,0.2688,0.266,0.2697,0.2729,0.2732,0.2742,0.2733,0.2755,0.2801,0.2808,0.275,0.2749,0.2748,0,0.1843,0.1966,0.2045,0.2083,0.2191,0.2226,0.2273,0.2347,0.2393,0.2462,0.2492,0.2568,0.2609,0.2666,0.272,0.271,0.2811,0.2808,0.2837,0.2836,0.2856,0.2854,0.2908,0.288,0.288,0.288,0.288,0,0.1892,0.1954,0.2046,0.2094,0.2165,0.2227,0.2295,0.2344,0.2409,0.2467,0.2509,0.2561,0.263,0.269,0.2732,0.2805,0.2823,0.2849,0.286,0.2846,0.2842,0.2871,0.2869,0.2882,0.2882,0.2881,0.2881,0,0.1902,0.1966,0.2055,0.215,0.2176,0.2224,0.2305,0.2352,0.2401,0.2473,0.2494,0.2569,0.2643,0.2702,0.2798,0.2826,0.2902,0.2914,0.2878,0.2883,0.2909,0.2905,0.2983,0.2996,0.2959,0.2959,0.2959,0,0.1928,0.1978,0.208,0.2122,0.2169,0.2237,0.2285,0.2346,0.2394,0.2483,0.252,0.2597,0.2662,0.2777,0.2839,0.2912,0.2926,0.2948,0.2937,0.2921,0.2926,0.2922,0.2927,0.2949,0.2949,0.2949,0.2949,0,0.1969,0.1999,0.2067,0.2147,0.2204,0.2269,0.2335,0.2367,0.2441,0.2492,0.2569,0.2619,0.2718,0.2793,0.2873,0.2918,0.2945,0.2952,0.2963,0.2949,0.2925,0.2938,0.2881,0.295,0.295,0.295,0.295,0.295,0.1988,0.2035,0.2114,0.2189,0.2245,0.2306,0.2356,0.2412,0.2478,0.2564,0.2596,0.2675,0.2747,0.2857,0.2903,0.2964,0.2966,0.2982,0.2985,0.2988,0.2986,0.2916,0.2978,0.2978,0.2979,0.2979,0.2979,0,0.2031,0.2085,0.2153,0.2245,0.2304,0.2327,0.2401,0.2448,0.2517,0.2584,0.2648,0.2735,0.2809,0.2877,0.2953,0.2988,0.3002,0.3006,0.3004,0.3014,0.298,0.2963,0.2993,0.2993,0.2993,0.2993,0.2993,0.2993,0.206,0.214,0.2179,0.2286,0.2338,0.2418,0.2458,0.2514,0.2567,0.2664,0.2726,0.2771,0.2838,0.2919,0.2987,0.3004,0.303,0.303,0.3051,0.3018,0.3016,0.3014,0.2999,0.3036,0.3036,0.308,0.3081,0.3081]}]]